Location: Unspecified
(0.0000°N, 0.0000°E)
Time: 11:14:38
(UTC+00:00)

Vanguard 1 - Pass Details

Date: 24 November 2019
Orbit: 651 x 3832 km, 34.3° (Epoch: 13 December)

Event Time Altitude Azimuth Distance (km) Brightness Sun altitude
Rises 18:56:41 0° 272° (W) 3,315 14.0 -16.3°
Reaches altitude 10° 18:59:12 10° 258° (WSW) 2,611 13.5 -16.9°
Maximum altitude 19:04:16 25° 203° (SSW) 2,221 12.3 -18.1°
Drops below altitude 10° 19:11:57 10° 151° (SSE) 4,083 13.1 -19.9°
Sets 19:17:13 0° 140° (SE) 5,699 13.8 -21.1°
